YRDMP LROP-LRTZ

Flight info

Callsign YRDMP
Flight time N/A
Altitude 7000
Route IDARU DCT CND
Aircraft DA62/L-SDFGRY/C

Departure

Time 2026-04-30 13:43
Airport Bucharest Henri Coandă International Airport (LROP)

Arrival

Time N/A
Airport Tuzla Airport (LRTZ)
Time Latitude Longitude Altitude Speed Heading
2026-04-30 13:21 44.57380 26.09720 322 ft 0 kts 354°
2026-04-30 13:34 44.57375 26.09721 322 ft 2 kts 354°
2026-04-30 13:34 44.57359 26.09717 322 ft 0 kts 64°
2026-04-30 13:39 44.57381 26.09846 322 ft 14 kts 25°
2026-04-30 13:39 44.57596 26.09721 322 ft 14 kts 274°
2026-04-30 13:40 44.57575 26.09457 321 ft 39 kts 262°
2026-04-30 13:40 44.57556 26.09182 321 ft 22 kts 248°
2026-04-30 13:40 44.57528 26.08946 322 ft 30 kts 264°
2026-04-30 13:40 44.57506 26.08665 322 ft 26 kts 264°
2026-04-30 13:41 44.57510 26.08489 322 ft 15 kts 308°
2026-04-30 13:41 44.57572 26.08447 321 ft 4 kts 352°
2026-04-30 13:41 44.57574 26.08447 321 ft 0 kts 354°
2026-04-30 13:42 44.57611 26.08442 320 ft 15 kts 351°
2026-04-30 13:42 44.57714 26.09033 316 ft 72 kts 85°
2026-04-30 13:43 44.57773 26.09922 377 ft 103 kts 84°
2026-04-30 13:43 44.57781 26.10876 819 ft 91 kts 82°
2026-04-30 13:43 44.57799 26.11781 1116 ft 104 kts 82°
2026-04-30 13:43 44.57866 26.12818 1400 ft 108 kts 76°
2026-04-30 13:44 44.58008 26.13891 1565 ft 120 kts 77°
2026-04-30 13:44 44.58135 26.15123 1537 ft 133 kts 77°
2026-04-30 13:44 44.58262 26.16452 1536 ft 141 kts 79°
2026-04-30 13:44 44.58369 26.17805 1531 ft 136 kts 79°
2026-04-30 13:45 44.58557 26.20332 1528 ft 126 kts 81°
2026-04-30 13:45 44.58483 26.21545 1531 ft 125 kts 91°
2026-04-30 13:45 44.58384 26.22752 1529 ft 125 kts 90°
2026-04-30 13:46 44.58284 26.23992 1528 ft 127 kts 91°
2026-04-30 13:46 44.58188 26.25214 1531 ft 128 kts 90°
2026-04-30 13:46 44.58090 26.26450 1530 ft 127 kts 90°
2026-04-30 13:46 44.57992 26.27687 1531 ft 128 kts 91°
2026-04-30 13:47 44.57894 26.28916 1527 ft 125 kts 91°
2026-04-30 13:47 44.57797 26.30120 1527 ft 124 kts 91°
2026-04-30 13:47 44.57704 26.31317 1524 ft 123 kts 91°
2026-04-30 13:47 44.57609 26.32506 1533 ft 122 kts 90°
2026-04-30 13:48 44.57514 26.33701 1528 ft 124 kts 90°
2026-04-30 13:48 44.57418 26.34914 1528 ft 126 kts 90°
2026-04-30 13:48 44.57319 26.36171 1535 ft 132 kts 91°
2026-04-30 13:48 44.57214 26.37466 1538 ft 134 kts 91°
2026-04-30 13:49 44.57110 26.38763 1542 ft 134 kts 91°
2026-04-30 13:49 44.57005 26.40057 1535 ft 133 kts 91°
2026-04-30 13:49 44.56903 26.41357 1533 ft 139 kts 90°
2026-04-30 13:49 44.56792 26.42751 1529 ft 147 kts 91°
2026-04-30 13:50 44.56674 26.44199 1532 ft 151 kts 91°
2026-04-30 13:50 44.57056 26.47058 1533 ft 152 kts 74°
2026-04-30 13:50 44.57277 26.48505 1539 ft 151 kts 75°
2026-04-30 13:51 44.57481 26.49946 1529 ft 150 kts 75°
2026-04-30 13:51 44.57676 26.51372 1529 ft 148 kts 75°
2026-04-30 13:51 44.57872 26.52787 1528 ft 148 kts 75°
2026-04-30 13:51 44.58067 26.54212 1532 ft 148 kts 76°
2026-04-30 13:52 44.58260 26.55618 1533 ft 146 kts 76°
2026-04-30 13:52 44.58448 26.56984 1520 ft 142 kts 76°
2026-04-30 13:52 44.58633 26.58347 1522 ft 138 kts 76°
2026-04-30 13:52 44.58814 26.59665 1516 ft 137 kts 76°
2026-04-30 13:53 44.58993 26.60973 1520 ft 136 kts 76°
2026-04-30 13:53 44.59171 26.62272 1518 ft 138 kts 75°
2026-04-30 13:53 44.59351 26.63590 1521 ft 138 kts 75°
2026-04-30 13:53 44.59534 26.64928 1514 ft 140 kts 76°
2026-04-30 13:54 44.59696 26.66263 1524 ft 139 kts 82°
2026-04-30 13:54 44.59504 26.67598 1527 ft 144 kts 97°
2026-04-30 13:54 44.59286 26.68969 1527 ft 143 kts 95°
2026-04-30 13:54 44.59061 26.70331 1531 ft 144 kts 96°
2026-04-30 13:55 44.58837 26.71714 1528 ft 147 kts 96°
2026-04-30 13:55 44.58610 26.73107 1527 ft 146 kts 97°
2026-04-30 13:55 44.58382 26.74488 1523 ft 145 kts 97°
2026-04-30 13:55 44.58157 26.75867 1521 ft 145 kts 97°
2026-04-30 13:56 44.57931 26.77244 1520 ft 146 kts 97°
2026-04-30 13:56 44.57702 26.78645 1526 ft 148 kts 96°
2026-04-30 13:56 44.57471 26.80055 1521 ft 148 kts 96°
2026-04-30 13:56 44.57239 26.81465 1526 ft 149 kts 96°
2026-04-30 13:57 44.57008 26.82871 1519 ft 147 kts 97°
2026-04-30 13:57 44.56776 26.84278 1519 ft 148 kts 97°
2026-04-30 13:57 44.56543 26.85690 1516 ft 149 kts 97°
2026-04-30 13:57 44.56310 26.87107 1518 ft 149 kts 97°
2026-04-30 13:58 44.56075 26.88532 1517 ft 150 kts 97°
2026-04-30 13:58 44.55609 26.91354 1520 ft 148 kts 97°
2026-04-30 13:58 44.55376 26.92760 1520 ft 148 kts 97°
2026-04-30 13:59 44.55144 26.94168 1523 ft 149 kts 97°
2026-04-30 13:59 44.54912 26.95570 1521 ft 150 kts 98°
2026-04-30 13:59 44.54675 26.96990 1523 ft 149 kts 98°
2026-04-30 13:59 44.54440 26.98410 1521 ft 150 kts 98°
2026-04-30 14:00 44.54201 26.99855 1517 ft 150 kts 98°
2026-04-30 14:00 44.53724 27.02721 1519 ft 152 kts 97°
2026-04-30 14:00 44.53487 27.04141 1521 ft 151 kts 97°
2026-04-30 14:01 44.53249 27.05575 1516 ft 151 kts 99°
2026-04-30 14:01 44.53087 27.06541 1516 ft 150 kts 99°
2026-04-30 14:01 44.52774 27.08417 1512 ft 149 kts 98°
2026-04-30 14:01 44.52540 27.09821 1511 ft 148 kts 98°